Weather Roundup
Issued by NWS

Home | Current Version | Previous Version | Graphics & Text | Print | Product List | Glossary Off
Versions: 1 2 3 4 5 6 7 8 9 10 11 12 13 14 15 16 17 18 19 20 21 22 23 24 25 26 27 28 29 30 31 32 33 34 35 36 37 38 39 40 41 42 43 44 45 46 47 48 49 50

000
NZUS93 KARX 211559
HRRWXR

CURRENT HOURLY OBSERVATIONS ACROSS
MUCH OF THE UPPER MISSISSIPPI VALLEY
NATIONAL WEATHER SERVICE LA CROSSE WI
1100 AM CDT MON JUL 21 2014


...SOUTHEAST MINNESOTA...


CITY           SKY/WX    TMP DP  RH WIND       PRES   REMARKS
ROCHESTER      SUNNY     78  70  76 SE15      29.97S
ROCHESTER/MAYO FAIR      78  66  65 SE13      29.96F
WINONA         CLOUDY    79  68  69 S3        29.97S
AUSTIN         SUNNY     81  70  69 S9G16     29.95R
ALBERT LEA     SUNNY     81  70  69 SE13      29.93S
DODGE CENTER   SUNNY     79  72  78 SE10      29.96R
PRESTON        SUNNY     77  72  84 S12       29.99S
OWATONNA       SUNNY     82  72  69 S9        29.93S
FARIBAULT      SUNNY     84  66  54 SE10      29.93R
$$

...ELSEWHERE IN MINNESOTA...


CITY           SKY/WX    TMP DP  RH WIND       PRES   REMARKS
MINNEAPOLIS    MOSUNNY   82  70  66 SE9       29.91S
INTNL FALLS    MOSUNNY   82  68  62 VRB3      29.86R
DULUTH         MOSUNNY   83  72  69 SW8       29.93R
RED WING       SUNNY     82  70  65 SE9       29.92S
REDWOOD FALLS  SUNNY     82  72  71 SE12      29.85F
MANKATO        SUNNY     81  68  65 SE13      29.90S
WORTHINGTON    MOSUNNY   79  73  83 S9        29.89S
FAIRMONT       SUNNY     81  68  65 SE14      29.89S
$$

...SOUTHWEST WISCONSIN...


CITY           SKY/WX    TMP DP  RH WIND       PRES   REMARKS
LA CROSSE      MOSUNNY   81  66  60 S16       29.98S
PRAIRIE DU CHI NOT AVBL
BOSCOBEL       MOSUNNY   82  66  58 S8        30.03R
LONE ROCK      NOT AVBL
PLATTEVILLE    CLOUDY    76  66  71 S12       30.06S
FORT MC COY    MOSUNNY   80  64  59 S12       30.00F
VIROQUA        CLOUDY    76  66  71 S10       30.03S
WIS DELLS      CLOUDY    78  63  61 S7        30.05R
$$

...ELSEWHERE IN WISCONSIN...


CITY           SKY/WX    TMP DP  RH WIND       PRES   REMARKS
MILWAUKEE      SUNNY     79  62  56 SW14      30.08S
MADISON        MOSUNNY   80  64  58 S17       30.05S
GREEN BAY      PTSUNNY   80  65  59 S15       30.03S
EAU CLAIRE     NOT AVBL
BLACK RVR FLS  FAIR      80  66  62 SW6       29.99R
MEDFORD        PTSUNNY   73  67  79 S8        30.02R
WAUSAU         CLOUDY    73  65  75 S7        30.01S
WIS RAPIDS     PTSUNNY   80  65  59 SW14G25   30.03S
MARSHFIELD     CLOUDY    74  66  76 S9        30.02S
RICE LAKE      SUNNY     80  67  66 SE9       29.97S
$$

...NORTHEAST IOWA...


CITY           SKY/WX    TMP DP  RH WIND       PRES   REMARKS
WATERLOO       MOSUNNY   81  68  64 SE14G23   29.97F
DUBUQUE        SUNNY     78  68  71 S14       30.05S
DECORAH        MOSUNNY   77  68  73 VRB7G15   30.00S
MASON CITY     SUNNY     80  71  74 S15       29.95F
CHARLES CITY   SUNNY     77  70  78 SE14      29.97F
OELWEIN        SUNNY     79  70  73 S14       30.01S
$$

...ELSEWHERE IN IOWA...


CITY           SKY/WX    TMP DP  RH WIND       PRES   REMARKS
DES MOINES     MOSUNNY   84  71  65 S14       29.93F
IOWA CITY      SUNNY     81  70  69 S13       30.03F
FORT DODGE     PTSUNNY   81  72  74 S10       29.92S
MARSHALLTOWN   SUNNY     79  70  74 SE16      29.96S
CEDAR RAPIDS   SUNNY     79  65  62 S10G20    30.01F
$$

...NORTHERN ILLINOIS...


CITY           SKY/WX    TMP DP  RH WIND       PRES   REMARKS
CHICAGO-OHARE  MOSUNNY   79  61  53 SW8       30.10R
DUPAGE         SUNNY     80  62  54 SW12      30.10F
CHICAGO-MIDWAY SUNNY     80  62  54 SW14      30.10S
MOLINE         SUNNY     80  67  64 S10       30.06R
ROCKFORD       SUNNY     79  65  62 S15       30.10S
STERLING       SUNNY     81  68  65 SW7       30.08S
PEORIA         SUNNY     80  67  64 S8        30.10S
$$

NOTE: "FAIR" INDICATES FEW OR NO CLOUDS BELOW 12,000 FEET WITH NO
SIGNIFICANT WEATHER AND/OR OBSTRUCTIONS TO VISIBILITY. WIND
SPEEDS ARE IN MILES-PER-HOUR.



USA.gov is the U.S. government's official web portal to all federal, state and local government web resources and services.